Regional Weather Roundup
Issued by NWS Little Rock, AR

Home | Current Version | Previous Version | Graphics & Text | Print | Product List | Glossary On
Versions: 1 2 3 4 5 6 7 8 9 10 11 12 13 14 15 16 17 18 19 20 21 22 23 24 25 26 27 28 29 30 31 32 33 34 35 36 37 38 39 40 41 42 43 44 45 46 47 48 49 50
000
ASUS44 KLZK 300105
RWRLZK

WEATHER ROUNDUP FOR ARKANSAS
NATIONAL WEATHER SERVICE LITTLE ROCK AR
800 PM CDT FRI AUG 29 2014

NOTE: "FAIR" INDICATES FEW OR NO CLOUDS BELOW 12,000 FEET WITH NO
SIGNIFICANT WEATHER AND/OR OBSTRUCTIONS TO VISIBILITY.

ARZ001-003-010-029-300200-
NORTHWEST ARKANSAS

CITY           SKY/WX    TMP DP  RH WIND       PRES   REMARKS
FAYETTEVILLE   CLEAR     73  69  87 S6        29.93S
FORT SMITH     CLEAR     77  71  82 E6        29.89S
HARRISON       CLOUDY    74  68  81 S6        29.94R
BENTONVILLE    CLEAR     79  66  65 SW5       29.94R
ROGERS         CLEAR     77  65  66 S8        29.94R
SILOAM SPGS      N/A     77  63  61 S9        29.93S
HIGHFILL       CLEAR     77  66  68 S8        29.92R
SPRINGDALE     PTCLDY    77  68  73 S10G17    29.95R
$$

ARZ004-005-016-300200-
NORTH CENTRAL ARKANSAS

CITY           SKY/WX    TMP DP  RH WIND       PRES   REMARKS
BATESVILLE     CLOUDY    73  70  88 SW7       29.97R
FLIPPIN        CLOUDY    73  64  73 SE3       29.94R
MTN HOME       CLOUDY    73  69  87 S3        29.93R
$$

ARZ040-041-300200-
WEST CENTRAL ARKANSAS

CITY           SKY/WX    TMP DP  RH WIND       PRES   REMARKS
MENA           MOCLDY    77  73  88 CALM      29.94R
MOUNT IDA      CLOUDY    76  73  91 SE3       29.91S
$$

ARZ009-017-025-026-028-300200-
NORTHEAST ARKANSAS

CITY           SKY/WX    TMP DP  RH WIND       PRES   REMARKS
CORNING          N/A     72  72 100 W20G28    29.94R FOG
JONESBORO      TSTM      75  72  88 SW13      29.98R
NEWPORT        CLOUDY    73  72  97 NW5       29.95R
WALNUT RIDGE   CLOUDY    73  66  78 SW14G32   29.96R THUNDER
BLYTHEVILLE    PTCLDY    80  73  79 SE3       29.93R
$$

ARZ022-023-033-042-044-300200-
CENTRAL ARKANSAS

CITY           SKY/WX    TMP DP  RH WIND       PRES   REMARKS
LITTLE ROCK    MOCLDY    79  71  76 N7        29.93R
N LITTLE ROCK  MOCLDY    77  73  86 N6        29.93R
JACKSONVILLE   MOCLDY    79  71  78 N7        29.95R
SEARCY         MOCLDY    74  73  96 CALM      29.96R
HOT SPRINGS    CLOUDY    79  71  76 VRB7      29.92R
RUSSELLVILLE   CLOUDY    75  72  90 CALM      29.92F
CLINTON        LGT RAIN  75  75 100 CALM      29.96R
$$

ARZ036-300200-
EAST ARKANSAS

CITY           SKY/WX    TMP DP  RH WIND       PRES   REMARKS
WEST MEMPHIS   CLOUDY    83  72  69 SW3       29.93R HX  88
$$

ARZ050-053-066-070-073-300200-
SOUTHWEST ARKANSAS

CITY           SKY/WX    TMP DP  RH WIND       PRES   REMARKS
ARKADELPHIA    FAIR      83  78  84 CALM      29.90S HX  93
CAMDEN         PTCLDY    82  73  74 S5        29.91R HX  88
TEXARKANA      CLOUDY    78  74  87 CALM      29.90S
EL DORADO      MOCLDY    82  72  71 SE3       29.92R HX  87
DE QUEEN       MOCLDY    75  73  93 CALM      29.88S
$$

ARZ056-057-069-300200-
SOUTHEAST ARKANSAS

CITY           SKY/WX    TMP DP  RH WIND       PRES   REMARKS
PINE BLUFF     LGT RAIN  82  73  74 S5        29.93R HX  87
STUTTGART      PTCLDY    79  73  83 SE5       29.95R
MONTICELLO     PTCLDY    83  75  77 CALM      29.93R HX  90

$$





USA.gov is the U.S. government's official web portal to all federal, state and local government web resources and services.